Date,TemperatureHighF,TemperatureAvgF,TemperatureLowF,DewpointHighF,DewpointAvgF,DewpointLowF,HumidityHigh,HumidityAvg,HumidityLow,PressureMaxIn,PressureMinIn,WindSpeedMaxMPH,WindSpeedAvgMPH,GustSpeedMaxMPH,PrecipitationSumIn
2013-2-1,19.8,15.6,11.9,15.3,9.0,5.0,92,75,61,30.16,29.60,35,12,38,0.00
2013-2-2,21.6,13.8,2.8,10.3,7.2,0.3,93,76,53,30.22,30.05,24,4,24,0.00
2013-2-3,21.9,14.9,7.0,13.8,10.7,4.9,93,83,64,30.07,29.79,9,1,10,0.00
2013-2-4,16.1,13.3,6.1,14.4,9.7,3.5,93,85,76,29.96,29.80,22,8,25,0.00
2013-2-5,22.9,16.1,10.0,16.7,11.0,6.9,90,80,65,30.03,29.92,9,2,12,0.00
2013-2-6,26.2,20.1,12.7,21.1,13.0,1.7,94,75,47,30.36,29.91,29,8,33,0.00
2013-2-7,20.4,14.9,8.1,8.4,4.4,0.0,76,63,50,30.53,30.35,17,4,18,0.00
2013-2-8,23.4,20.5,17.4,21.9,17.0,8.1,95,86,63,30.37,29.83,18,7,22,0.00
2013-2-9,18.7,13.4,8.0,17.3,8.5,1.5,94,81,59,30.36,29.85,32,14,33,0.00
2013-2-10,34.5,16.9,7.2,9.6,2.3,-5.3,75,54,26,30.52,30.27,17,5,20,0.01
2013-2-11,42.9,30.0,18.2,37.9,25.9,6.1,98,85,58,30.27,29.68,24,8,26,0.03
2013-2-12,31.2,29.6,26.9,29.4,24.7,20.3,97,82,74,29.93,29.67,37,12,42,0.00
2013-2-13,36.4,28.1,26.0,22.0,20.2,18.8,83,72,53,29.90,29.73,17,4,21,0.00
2013-2-14,36.9,27.6,20.3,25.8,20.8,16.5,86,76,59,29.96,29.73,13,4,15,0.00
2013-2-15,32.1,29.9,26.8,27.6,25.7,23.3,88,84,76,29.94,29.89,12,4,12,0.00
2013-2-17,7.1,6.6,6.2,3.1,1.4,0.5,86,79,74,29.92,29.83,40,23,47,0.00
2013-2-18,20.4,11.2,1.6,6.6,2.3,-2.4,88,68,48,30.24,29.92,37,15,42,0.00
2013-2-19,32.9,23.0,14.7,31.4,15.6,4.4,97,74,54,30.19,29.64,20,5,24,0.00
2013-2-20,25.0,19.7,16.4,23.4,12.3,6.9,94,73,55,29.89,29.66,35,16,41,0.00
2013-2-21,17.0,13.4,10.4,12.2,8.8,6.1,92,82,74,30.41,29.87,42,17,42,0.00
2013-2-22,29.2,22.5,12.6,22.4,17.7,10.5,94,82,68,30.47,30.24,20,5,22,0.00
2013-2-23,31.7,28.8,26.0,31.2,27.6,22.4,98,96,86,30.24,29.86,22,10,25,0.00
2013-2-24,32.2,28.6,24.8,30.4,26.6,22.2,98,92,80,29.98,29.77,27,7,30,0.01
2013-2-25,33.1,28.7,24.8,27.6,25.5,22.8,97,88,74,30.23,29.98,22,7,22,0.00
2013-2-26,36.6,32.2,23.4,28.3,25.8,22.2,95,78,64,30.34,30.01,18,7,22,0.00
2013-2-27,34.9,31.1,26.0,34.4,30.4,24.6,98,97,92,30.02,29.55,28,8,29,0.53
2013-2-28,36.0,31.9,29.3,35.5,31.4,28.8,99,98,96,29.61,29.56,14,3,17,0.23